Location: Pine Lake Village
(34.3370°N, 86.5394°W)
Time: 21:04:51
(UTC+00:00)

Tiangong 2 - Visible Passes

Search period start: 24 March 2019 00:00
Search period end: 03 April 2019 00:00
Orbit: 380 x 390 km, 42.8° (Epoch: 24 March)

Date Brightness Start Highest point End Pass type
(mag) Time Alt. Az. Time Alt. Az. Time Alt. Az.
24 Mar 1.4 10:31:36 41° WSW 10:32:02 44° SW 10:35:05 10° SE visible
25 Mar 4.2 09:35:34 11° ESE 09:35:34 11° ESE 09:35:45 10° ESE visible
25 Mar 3.3 11:07:57 10° WSW 11:08:57 11° SW 11:09:57 10° SSW visible
26 Mar 3.8 10:11:59 11° SSE 10:11:59 11° SSE 10:12:10 10° SSE visible
28 Mar 3.8 01:39:42 10° SSW 01:39:49 11° SSW 01:39:49 11° SSW visible
29 Mar 3.1 00:41:24 10° S 00:43:04 14° SE 00:44:07 12° ESE visible
29 Mar 4.3 02:16:22 10° WSW 02:16:24 10° WSW 02:16:24 10° WSW visible
30 Mar 1.1 01:16:55 10° SW 01:19:59 56° SSE 01:20:30 47° ESE visible
31 Mar 2.5 01:54:13 10° W 01:56:42 37° NW 01:56:42 37° NW visible
01 Apr 1.2 00:54:28 10° WSW 00:57:36 72° NNW 01:00:26 12° ENE visible
01 Apr 4.5 02:32:14 10° WNW 02:32:41 12° WNW 02:32:41 12° WNW visible
02 Apr 2.9 01:32:13 10° WNW 01:34:57 27° NNW 01:36:16 20° NNE visible
